星链-5715 (STARLINK-5715 )

导读

STARLINK-5715是美国SpaceX公司星链(Starlink)星座的卫星,于2023年2月12日发射,属于星链第二代系统部署阶段的卫星,运行在近地轨道。 星链项目旨在构建全球覆盖的低轨巨型卫星星座,为全球地面网络缺失或基础设施薄弱地区提供高速宽带互联网接入,业务已拓展至航空、海事、应急通信等领域,STARLINK-5715为星座组网与服务覆盖能力提升提供支撑。

基本信息
目录编号:
55613
目录名称:
STARLINK-5715
国际标识:
2023-020AW
轨道中心:
EARTH
卫星名称:
星链-5715
卫星全名:
星链-5715 (STARLINK-5715 )
卫星状态:
已陨落 最后检测时间 2025-11-27
发射日期:
2023-02-12 UTC
国别 :
美国 (US)
星等 :
--
轨道信息
数据来源 国际轨道数据
星历时间: 2025-11-27T03:32:57+0800
轨道信息已过期200天
半长轴: 6544.447km
偏心率: 0.0005163
轨道倾角: 42.985°
近地点辐角 278.457°
升交点赤经 154.994°
平近点角 81.574°
近地点: 162.933km
远地点: 169.691km
周期: 87.815分钟
每日圈数: 16.398093
详细信息
固有亮度:
5
最大亮度:
2.5
卫星平台:
Starlink v1.5
覆盖范围:
全球
运营商:
太空探索技术公司
运营商所在国:
美国
制造商(研发单位):
太空探索技术公司
制造商所在国:
美国
使用方式:
暂无
卫星简介
星链(Starlink)计划是由太空探索技术公司(SpaceX)提出的一个巨型低轨卫星互联网星座项目,计划在2019年至2024年间在太空搭建由约1.2万颗卫星组成的“星链”网络,其中1584颗将部署在地球上空550千米处的近地轨道,并从2020年开始工作。该卫星仍在工作。